Nationale Longue Distance NE Dijon 28/03/2010 - Kbis

Date : 28/03/2010

Place Nom Licence Catégorie Club Temps Points
1 BODY Mathilde 10184 D14 7305AR 0:34:43 3273
2 ROULLEAUX Julie 11559 D14 9105IF 0:36:04 3151
3 HABERKORN Chloé 10396 D14 2105BF 0:36:39 3101
4 LEBIHAN Barbara 11508 D14 6804GE 0:38:19 2966
5 KORCHAK Nathalie 13638 D14 6806GE 0:40:15 2823
6 PETER-JAN Lucile 19276 D14 3705CE 0:41:15 2755
7 GIRARD Lucille 19689 D14 3705CE 0:43:08 2635
8 LUTHRINGER Coline 10091 D14 8809GE 0:43:28 2614
9 BORNARD Julie 9402 D14 7305AR 0:44:22 2561
10 GUINOT Marion 15018 D14 2108BF 0:44:49 2536
11 FALGA Beatrice 12403 D14 6911AR 0:48:42 2333
12 GUILLOT Jeanne 20364 D14 7004BF 0:52:15 2175
13 BONORA Marine 11542 D14 6906AR 0:52:46 2154
14 VALETTE Marion 10430 D14 6913AR 0:56:47 2001
15 CHARDOT Marion 22315 D14 7807IF 0:56:57 1995
16 BESTEL Sandra 10758 D14 9105IF 1:00:09 1889
17 BEAUVIR Maëlle 12709 D14 3502BR 1:00:14 1887
18 PORTE Louise 9143 D14 2105BF 1:01:37 1844
19 MOUTAULT Anais 12999 D14 3705CE 1:11:20 1593
20 PARENT Mathilde 22250 D14 6208HF 1:30:28 1256
21 AUBRY Edith 1508 D55 5402GE 1:41:10 1123
JEANNERET Julie 20160 D14 7109BF pm 0
RIVOLLIER Isaline 22451 D14 4201AR pm 0